Regional Weather Roundup
Issued by NWS

Home | Current Version | Previous Version | Graphics & Text | Print | Product List | Glossary On
Versions: 1 2 3 4 5 6 7 8 9 10 11 12 13 14 15 16 17 18 19 20 21 22 23 24 25 26 27 28 29 30 31 32 33 34 35 36 37 38 39 40 41 42 43 44 45 46 47 48 49 50
000
ASUS43 KDMX 281507
RWRIA

WEATHER ROUNDUP FOR IOWA
NATIONAL WEATHER SERVICE DES MOINES IA
1000 AM CDT FRI AUG 28 2015

NOTE: "FAIR" INDICATES FEW OR NO CLOUDS BELOW 12,000 FEET WITH NO
SIGNIFICANT WEATHER AND/OR OBSTRUCTIONS TO VISIBILITY.

* - THESE STATIONS ARE NOT NWS STATIONS...THUS NOT UNDER NWS
QUALITY CONTROL.  THEY ALSO DO NOT REPORT WEATHER SUCH
AS PRECIPITATION OR FOG.

IAZ001>003-012>014-020>022-031>034-043>046-281600-
   NORTHWEST IOWA

CITY           SKY/WX    TMP DP  RH WIND       PRES   REMARKS
CARROLL *      CLOUDY    64  64 100 S20G28    29.85R
CHEROKEE *     HVY RAIN  64  64 100 E8G16     29.85S
DENISON *      CLOUDY    66  64  94 S18G28    29.81R
LE MARS *      PTSUNNY   66  64  94 E9        29.85R
ORANGE CITY *  CLOUDY    64  64 100 E9G16     29.87R
SHELDON *      PTSUNNY   64  64 100 E17G24    29.87F FOG
SIOUX CITY     CLOUDY    67  63  87 N7        29.82R FOG
SPENCER        LGT RAIN  65  62  90 E17       29.90F FOG
STORM LAKE *   CLOUDY    64  64 100 E9        29.87S FOG
$$

IAZ055>058-069>071-079>083-090>094-281600-
   SOUTHWEST IOWA

CITY           SKY/WX    TMP DP  RH WIND       PRES   REMARKS
ATLANTIC *     CLOUDY    68  66  94 S18       29.86F
AUDUBON *      PTSUNNY   64  63  94 S12G18    29.87F
CLARINDA *     PTSUNNY   70  68  94 S12G18    29.90F
COUNCIL BLFS * CLOUDY    70  66  88 S13G20    29.83F
CRESTON *      CLOUDY    64  63  94 SE16G23   29.93S
HARLAN  *      CLOUDY    66 -38   1 S12G17    29.88S
LAMONI         CLOUDY    67  62  84 S12G22    29.96R
RED OAK *      PTSUNNY   72  68  88 S15G21    29.86F
SHENANDOAH *   CLOUDY    72  68  88 S10       29.88F
$$

IAZ047>049-059>061-072>074-084-281600-
   CENTRAL IOWA

CITY           SKY/WX    TMP DP  RH WIND       PRES   REMARKS
AMES           HVY RAIN  63  63 100 SE17G29   29.89F FOG
ANKENY *       CLOUDY    63  63 100 SE21G26   29.89F
CHARITON *     MOSUNNY   64  63  94 SE13      29.97F
DES MOINES     LGT RAIN  64  60  87 SE17G24   29.91F
GRINNELL*      LGT RAIN  61  59  94 E14       30.02F
KNOXVILLE *    CLOUDY    63  61  94 SE13      29.97F
MARSHALLTOWN   LGT RAIN  61  60  97 E14       29.99F FOG
PELLA *        LGT RAIN  63  63 100 SE12      30.01F
PERRY *        HVY RAIN  64  64 100 SE18G29   29.90R
$$

IAZ004>006-015-016-023>025-035-036-281600-
   NORTH CENTRAL IOWA

CITY           SKY/WX    TMP DP  RH WIND       PRES   REMARKS
ALGONA *       LGT RAIN  63  63 100 E10G22    29.94S
CLARION *      CLOUDY    61  61 100 SE25G35   29.91F FOG
ESTHERVILLE    RAIN      63  62  97 E14       29.95S FOG
FORT DODGE *   CLOUDY    63  61  94 SE12G22   29.90S
MASON CITY     LGT RAIN  63  61  93 E17G24    30.00F FOG
FOREST CITY *  RAIN      61  61 100 E16       29.95F
IOWA FALLS *   RAIN      61  59  94 E16G22    29.97F
$$

IAZ007>011-017>019-026>030-037>042-050>054-066-281600-
   NORTHEAST IOWA

CITY           SKY/WX    TMP DP  RH WIND       PRES   REMARKS
CEDAR RAPIDS   LGT RAIN  62  61  96 SE5       30.08R
CHARLES CITY * RAIN      63  63 100 E9        30.05S
CLINTON *      CLOUDY    64  59  82 SE9       30.13S
DECORAH *      LGT RAIN  61  61 100 CALM      30.09R
DUBUQUE        CLOUDY    63  59  87 S6        30.11R
MONTICELLO *   PTSUNNY   63  59  88 S5        30.10R
OELWEIN *      LGT RAIN  61  61 100 SE7       30.09F
WATERLOO       RAIN      61  59  93 SE9       30.06F FOG
$$

IAZ064-065-067-068-078-281600-
   EAST CENTRAL IOWA

CITY           SKY/WX    TMP DP  RH WIND       PRES   REMARKS
DAVENPORT      CLOUDY    64  59  83 SE9       30.10S
IOWA CITY      CLOUDY    63  59  87 E5        30.09R
MT. PLEASANT * CLOUDY    66  59  77 SE8       30.07S
MUSCATINE *    PTSUNNY   64  59  82 S6G12     30.09R
QUAD CITIES    CLOUDY    65  59  81 SE3       30.10S
$$

IAZ062-063-075>077-085>089-095>099-281600-
   SOUTHEAST IOWA

CITY           SKY/WX    TMP DP  RH WIND       PRES   REMARKS
BURLINGTON     CLOUDY    65  61  87 S6        30.08S
FAIRFIELD *    MOSUNNY   64  59  82 SE9       30.05R
FORT MADISON * SUNNY     64  61  88 SE6       30.08S
KEOKUK *       SUNNY     66  61  82 SE8       30.07S
OSKALOOSA *    LGT RAIN  61  61 100 E7        30.03F
CENTERVILLE *  MOSUNNY   64  61  88 SE10      30.01F
OTTUMWA        LGT RAIN  63  61  93 E12       30.01F FOG
WASHINGTON *     N/A    N/A N/A N/A MISG        N/A
$$

ABBREVIATIONS USED IN REMARKS
   TC - TEMPERATURES IN CELSIUS
  WCI - WIND CHILL INDEX
   HX - HEAT INDEX
  VSB - VISIBILITY
$$



USA.gov is the U.S. government's official web portal to all federal, state and local government web resources and services.